Location: *
(40.7264°N, 73.9953°W)
Time: 14:28:14
(UTC+00:00)

Daily predictions for brighter satellites

Satellite Brightness Start Highest point End
(mag) Time Altitude Azimuth Time Altitude Azimuth Time Altitude Azimuth
FALCON 9 R/B 4.3 23:13:15 10° SW 23:19:03 38° SSE 23:45:28 10° E
COSMO-SKYMED 1 4.5 23:39:52 10° N 23:43:52 37° WNW 23:47:51 10° SW
STARLINK-1269 4.0 23:41:35 10° WSW 23:45:38 67° NW 23:49:42 10° NE
Cosmos 304 Rocket 4.1 23:42:12 10° N 23:46:49 45° ENE 23:51:23 10° SE
YAOGAN 1 3.1 23:45:07 10° S 23:49:23 64° WSW 23:53:42 10° NNW
Orbus 7S? 2.3 23:47:33 10° NW 23:50:27 77° NE 23:52:51 10° SE
STARLINK-1200 4.1 23:46:27 10° WSW 23:50:29 61° NW 23:54:31 10° NE
Cosmos 1455 Rocket 3.2 23:47:08 10° S 23:51:19 51° E 23:55:33 10° NNE
STARLINK-1117 4.4 23:48:38 10° NW 23:52:25 37° NNE 23:56:11 10° E
SeaSat 1 4.0 23:47:51 10° NNE 23:52:28 41° WNW 23:57:03 10° SW
Cosmos 1269 Rocket 4.1 23:48:07 10° S 23:53:16 57° ESE 23:58:28 10° NNE
Cosmos 1805 3.3 23:50:02 10° S 23:53:57 85° W 23:57:52 10° N
STARLINK-1192 4.3 23:51:15 10° WSW 23:55:16 56° NW 23:59:18 10° NE
